Time,TemperatureF,DewpointF,PressureIn,WindDirection,WindDirectionDegrees,WindSpeedMPH,WindSpeedGustMPH,Humidity,HourlyPrecipIn,Conditions,Clouds,dailyrainin,SoftwareType,DateUTC
2013-02-01 00:04:00,-0.2,-10.2,30.24,West,270,3.1,5.8,62,0.00,SCT,FEW,0.00,WeatherDisplay:10.37,2013-02-01 06:04:00,
2013-02-01 00:09:00,0.0,-12.4,30.25,West,270,2.2,10.4,55,0.00,SCT,FEW,0.00,WeatherDisplay:10.37,2013-02-01 06:09:00,
2013-02-01 00:15:00,0.0,-12.4,30.24,NW,315,5.4,12.7,55,0.00,SCT,FEW,0.00,WeatherDisplay:10.37,2013-02-01 06:15:00,
2013-02-01 00:21:00,0.0,-12.4,30.24,West,270,4.5,9.2,55,0.00,SCT,FEW,0.00,WeatherDisplay:10.37,2013-02-01 06:21:00,
2013-02-01 00:26:00,0.0,-12.4,30.25,West,270,4.5,9.2,55,0.00,SCT,FEW,0.00,WeatherDisplay:10.37,2013-02-01 06:26:00,
2013-02-01 00:32:00,-0.2,-10.2,30.25,West,270,3.1,8.1,62,0.00,SCT,FEW,0.00,WeatherDisplay:10.37,2013-02-01 06:32:00,
2013-02-01 00:37:00,-0.2,-10.2,30.25,NW,315,4.5,15.0,62,0.00,SCT,FEW,0.00,WeatherDisplay:10.37,2013-02-01 06:37:00,
2013-02-01 00:43:00,-0.4,-11.3,30.25,North,0,2.2,12.7,59,0.00,SCT,FEW,0.00,WeatherDisplay:10.37,2013-02-01 06:43:00,
2013-02-01 00:49:00,-0.6,-12.9,30.26,NW,315,5.4,11.5,55,0.00,SCT,FEW,0.00,WeatherDisplay:10.37,2013-02-01 06:49:00,
2013-02-01 00:54:00,-0.8,-13.1,30.25,North,0,6.9,11.5,55,0.00,SCT,FEW,0.00,WeatherDisplay:10.37,2013-02-01 06:54:00,
2013-02-01 01:00:00,-0.6,-12.9,30.26,NW,315,3.1,6.9,55,0.00,SCT,FEW,0.00,WeatherDisplay:10.37,2013-02-01 07:00:00,
2013-02-01 01:05:00,-0.8,-13.8,30.26,NW,315,3.8,6.9,53,0.00,FEW,,0.00,WeatherDisplay:10.37,2013-02-01 07:05:00,
2013-02-01 01:11:00,-0.8,-13.8,30.26,NW,315,1.6,4.6,53,0.00,FEW,,0.00,WeatherDisplay:10.37,2013-02-01 07:11:00,
2013-02-01 01:17:00,-0.8,-10.7,30.26,West,270,6.0,13.0,62,0.00,FEW,,0.00,WeatherDisplay:10.37,2013-02-01 07:17:00,
2013-02-01 01:22:00,-0.8,-13.8,30.26,NW,315,3.1,5.8,53,0.00,FEW,,0.00,WeatherDisplay:10.37,2013-02-01 07:22:00,
2013-02-01 01:28:00,-0.8,-10.7,30.26,NW,315,0.7,4.6,62,0.00,FEW,,0.00,WeatherDisplay:10.37,2013-02-01 07:28:00,
2013-02-01 01:33:00,-0.8,-13.8,30.26,NW,315,3.1,5.8,53,0.00,FEW,,0.00,WeatherDisplay:10.37,2013-02-01 07:33:00,
2013-02-01 01:39:00,-0.9,-10.8,30.27,SW,225,1.6,5.8,62,0.00,FEW,,0.00,WeatherDisplay:10.37,2013-02-01 07:39:00,
2013-02-01 01:45:00,-0.9,-14.0,30.26,SW,225,2.2,3.5,53,0.00,FEW,,0.00,WeatherDisplay:10.37,2013-02-01 07:45:00,
2013-02-01 01:50:00,-0.9,-14.0,30.27,West,270,5.4,11.5,53,0.00,FEW,,0.00,WeatherDisplay:10.37,2013-02-01 07:50:00,
2013-02-01 01:56:00,-0.9,-11.2,30.27,NW,315,2.2,8.1,61,0.00,FEW,,0.00,WeatherDisplay:10.37,2013-02-01 07:56:00,
2013-02-01 02:01:00,-0.8,-12.7,30.27,North,0,2.2,9.2,56,0.00,CLR,FEW,0.00,WeatherDisplay:10.37,2013-02-01 08:01:00,
2013-02-01 02:07:00,-0.8,-11.0,30.27,North,0,2.2,3.8,61,0.00,CLR,FEW,0.00,WeatherDisplay:10.37,2013-02-01 08:07:00,
2013-02-01 02:13:00,-0.8,-11.0,30.28,NW,315,3.1,6.9,61,0.00,CLR,FEW,0.00,WeatherDisplay:10.37,2013-02-01 08:13:00,
2013-02-01 02:18:00,-0.9,-12.9,30.27,SW,225,5.4,15.0,56,0.00,CLR,FEW,0.00,WeatherDisplay:10.37,2013-02-01 08:18:00,
2013-02-01 02:24:00,-0.9,-12.9,30.28,North,0,4.5,9.2,56,0.00,CLR,FEW,0.00,WeatherDisplay:10.37,2013-02-01 08:24:00,
2013-02-01 02:29:00,-0.9,-12.9,30.28,NW,315,4.5,13.8,56,0.00,CLR,FEW,0.00,WeatherDisplay:10.37,2013-02-01 08:29:00,
2013-02-01 02:35:00,-0.9,-12.9,30.28,West,270,2.2,5.8,56,0.00,CLR,FEW,0.00,WeatherDisplay:10.37,2013-02-01 08:35:00,
2013-02-01 02:41:00,-0.9,-12.9,30.27,NW,315,3.8,8.1,56,0.00,CLR,FEW,0.00,WeatherDisplay:10.37,2013-02-01 08:41:00,
2013-02-01 02:46:00,-0.9,-12.9,30.27,West,270,3.8,8.1,56,0.00,CLR,FEW,0.00,WeatherDisplay:10.37,2013-02-01 08:46:00,
2013-02-01 02:52:00,-1.1,-11.0,30.28,West,270,3.1,6.0,62,0.00,CLR,FEW,0.00,WeatherDisplay:10.37,2013-02-01 08:52:00,
2013-02-01 02:57:00,-1.1,-13.1,30.28,West,270,3.1,5.8,56,0.00,CLR,FEW,0.00,WeatherDisplay:10.37,2013-02-01 08:57:00,
2013-02-01 03:03:00,-1.1,-13.1,30.28,West,270,3.1,8.1,56,0.00,CLR,FEW,0.00,WeatherDisplay:10.37,2013-02-01 09:03:00,
2013-02-01 03:09:00,-1.1,-11.0,30.29,NW,315,3.1,4.6,62,0.00,CLR,FEW,0.00,WeatherDisplay:10.37,2013-02-01 09:09:00,
2013-02-01 03:14:00,-1.3,-13.2,30.28,NW,315,6.0,10.7,56,0.00,CLR,FEW,0.00,WeatherDisplay:10.37,2013-02-01 09:14:00,
2013-02-01 03:20:00,-1.3,-13.2,30.29,SW,225,1.6,10.4,56,0.00,CLR,FEW,0.00,WeatherDisplay:10.37,2013-02-01 09:20:00,
2013-02-01 03:25:00,-1.3,-13.2,30.28,NW,315,2.2,6.9,56,0.00,CLR,FEW,0.00,WeatherDisplay:10.37,2013-02-01 09:25:00,
2013-02-01 03:31:00,-1.5,-13.4,30.29,West,270,1.6,6.9,56,0.00,CLR,FEW,0.00,WeatherDisplay:10.37,2013-02-01 09:31:00,
2013-02-01 03:37:00,-1.5,-11.4,30.29,West,270,1.6,4.5,62,0.00,CLR,FEW,0.00,WeatherDisplay:10.37,2013-02-01 09:37:00,
2013-02-01 03:42:00,-1.5,-13.4,30.29,NW,315,1.6,4.6,56,0.00,CLR,FEW,0.00,WeatherDisplay:10.37,2013-02-01 09:42:00,
2013-02-01 03:48:00,-1.7,-13.6,30.29,NW,315,0.7,3.5,56,0.00,CLR,FEW,0.00,WeatherDisplay:10.37,2013-02-01 09:48:00,
2013-02-01 03:53:00,-1.5,-11.0,30.29,South,180,2.2,6.0,63,0.00,CLR,FEW,0.00,WeatherDisplay:10.37,2013-02-01 09:53:00,
2013-02-01 03:59:00,-1.7,-13.6,30.29,West,270,1.6,5.8,56,0.00,CLR,FEW,0.00,WeatherDisplay:10.37,2013-02-01 09:59:00,
2013-02-01 04:05:00,-1.7,-11.5,30.29,NW,315,4.5,8.1,62,0.00,CLR,FEW,0.00,WeatherDisplay:10.37,2013-02-01 10:05:00,
2013-02-01 04:10:00,-1.7,-11.9,30.29,West,270,0.7,10.4,61,0.00,CLR,FEW,0.00,WeatherDisplay:10.37,2013-02-01 10:10:00,
2013-02-01 04:16:00,-1.7,-11.9,30.29,NW,315,1.6,5.8,61,0.00,CLR,FEW,0.00,WeatherDisplay:10.37,2013-02-01 10:16:00,
2013-02-01 04:21:00,-1.8,-12.0,30.29,North,0,3.1,6.9,61,0.00,CLR,FEW,0.00,WeatherDisplay:10.37,2013-02-01 10:21:00,
2013-02-01 04:27:00,-1.8,-12.0,30.29,NW,315,1.6,4.6,61,0.00,CLR,FEW,0.00,WeatherDisplay:10.37,2013-02-01 10:27:00,
2013-02-01 04:33:00,-1.8,-11.7,30.30,NW,315,2.2,5.8,62,0.00,CLR,FEW,0.00,WeatherDisplay:10.37,2013-02-01 10:33:00,
2013-02-01 04:38:00,-1.8,-13.7,30.30,West,270,2.2,4.6,56,0.00,CLR,FEW,0.00,WeatherDisplay:10.37,2013-02-01 10:38:00,
2013-02-01 04:44:00,-1.8,-11.4,30.30,NW,315,2.2,5.8,63,0.00,CLR,FEW,0.00,WeatherDisplay:10.37,2013-02-01 10:44:00,
2013-02-01 04:49:00,-1.8,-13.7,30.30,SW,225,1.6,5.8,56,0.00,CLR,FEW,0.00,WeatherDisplay:10.37,2013-02-01 10:49:00,
2013-02-01 04:55:00,-1.8,-13.7,30.30,NW,315,1.6,5.8,56,0.00,CLR,FEW,0.00,WeatherDisplay:10.37,2013-02-01 10:55:00,
2013-02-01 05:01:00,-1.8,-13.7,30.30,SW,225,1.6,4.6,56,0.00,CLR,FEW,0.00,WeatherDisplay:10.37,2013-02-01 11:01:00,
2013-02-01 05:06:00,-1.8,-12.4,30.30,West,270,3.8,5.8,60,0.00,CLR,FEW,0.00,WeatherDisplay:10.37,2013-02-01 11:06:00,
2013-02-01 05:12:00,-2.0,-11.5,30.30,West,270,1.6,3.8,63,0.00,CLR,FEW,0.00,WeatherDisplay:10.37,2013-02-01 11:12:00,
2013-02-01 05:17:00,-2.0,-12.5,30.30,NW,315,2.2,5.8,60,0.00,CLR,FEW,0.00,WeatherDisplay:10.37,2013-02-01 11:17:00,
2013-02-01 05:23:00,-2.2,-12.7,30.30,West,270,1.6,4.6,60,0.00,CLR,FEW,0.00,WeatherDisplay:10.37,2013-02-01 11:23:00,
2013-02-01 05:29:00,-2.2,-11.7,30.29,West,270,3.8,8.3,63,0.00,CLR,FEW,0.00,WeatherDisplay:10.37,2013-02-01 11:29:00,
2013-02-01 05:34:00,-2.2,-12.7,30.30,NW,315,3.1,6.9,60,0.00,CLR,FEW,0.00,WeatherDisplay:10.37,2013-02-01 11:34:00,
2013-02-01 05:40:00,-2.2,-12.0,30.30,WSW,248,3.8,6.9,62,0.00,CLR,FEW,0.00,WeatherDisplay:10.37,2013-02-01 11:40:00,
2013-02-01 05:45:00,-2.4,-12.5,30.30,NW,315,3.1,5.8,61,0.00,CLR,FEW,0.00,WeatherDisplay:10.37,2013-02-01 11:45:00,
2013-02-01 05:51:00,-2.4,-12.9,30.31,SW,225,1.6,8.1,60,0.00,CLR,FEW,0.00,WeatherDisplay:10.37,2013-02-01 11:51:00,
2013-02-01 05:57:00,-2.6,-13.0,30.31,West,270,2.2,3.5,60,0.00,CLR,FEW,0.00,WeatherDisplay:10.37,2013-02-01 11:57:00,
2013-02-01 06:02:00,-2.6,-14.4,30.31,NW,315,3.8,5.8,56,0.00,CLR,FEW,0.00,WeatherDisplay:10.37,2013-02-01 12:02:00,
2013-02-01 06:08:00,-2.6,-12.4,30.31,WSW,248,4.5,8.3,62,0.00,CLR,FEW,0.00,WeatherDisplay:10.37,2013-02-01 12:08:00,
2013-02-01 06:13:00,-2.6,-12.7,30.31,West,270,5.4,7.6,61,0.00,CLR,FEW,0.00,WeatherDisplay:10.37,2013-02-01 12:13:00,
2013-02-01 06:19:00,-2.6,-14.4,30.31,NW,315,3.8,6.9,56,0.00,CLR,FEW,0.00,WeatherDisplay:10.37,2013-02-01 12:19:00,
2013-02-01 06:25:00,-2.7,-14.6,30.31,West,270,3.1,10.4,56,0.00,CLR,FEW,0.00,WeatherDisplay:10.37,2013-02-01 12:25:00,
2013-02-01 06:30:00,-2.7,-13.2,30.32,NW,315,4.5,9.8,60,0.00,CLR,FEW,0.00,WeatherDisplay:10.37,2013-02-01 12:30:00,
2013-02-01 06:36:00,-2.9,-13.4,30.31,West,270,3.8,8.3,60,0.00,CLR,FEW,0.00,WeatherDisplay:10.37,2013-02-01 12:36:00,
2013-02-01 06:41:00,-2.9,-14.8,30.32,West,270,4.5,8.1,56,0.00,CLR,FEW,0.00,WeatherDisplay:10.37,2013-02-01 12:41:00,
2013-02-01 06:47:00,-3.1,-13.2,30.32,NW,315,2.2,3.8,61,0.00,CLR,FEW,0.00,WeatherDisplay:10.37,2013-02-01 12:47:00,
2013-02-01 06:53:00,-3.1,-14.9,30.32,SW,225,2.2,3.5,56,0.00,CLR,FEW,0.00,WeatherDisplay:10.37,2013-02-01 12:53:00,
2013-02-01 06:58:00,-3.3,-15.1,30.31,NW,315,3.1,5.8,56,0.00,CLR,FEW,0.00,WeatherDisplay:10.37,2013-02-01 12:58:00,
2013-02-01 07:04:00,-3.3,-15.1,30.31,SE,135,1.6,4.6,56,0.00,CLR,FEW,0.00,WeatherDisplay:10.37,2013-02-01 13:04:00,
2013-02-01 07:09:00,-3.3,-15.1,30.31,NW,315,1.6,4.6,56,0.00,CLR,FEW,0.00,WeatherDisplay:10.37,2013-02-01 13:09:00,
2013-02-01 07:15:00,-3.5,-13.2,30.31,West,270,1.6,3.5,62,0.00,CLR,FEW,0.00,WeatherDisplay:10.37,2013-02-01 13:15:00,
2013-02-01 07:21:00,-3.5,-12.9,30.31,NW,315,0.7,3.5,63,0.00,CLR,FEW,0.00,WeatherDisplay:10.37,2013-02-01 13:21:00,
2013-02-01 07:26:00,-3.5,-15.3,30.31,NW,315,0.0,5.8,56,0.00,CLR,FEW,0.00,WeatherDisplay:10.37,2013-02-01 13:26:00,
2013-02-01 07:32:00,-3.5,-15.3,30.32,SW,225,1.6,3.5,56,0.00,CLR,FEW,0.00,WeatherDisplay:10.37,2013-02-01 13:32:00,
2013-02-01 07:37:00,-3.5,-15.3,30.32,West,270,2.2,4.6,56,0.00,CLR,FEW,0.00,WeatherDisplay:10.37,2013-02-01 13:37:00,
2013-02-01 07:43:00,-3.3,-12.8,30.32,NW,315,1.6,3.5,63,0.00,CLR,FEW,0.00,WeatherDisplay:10.37,2013-02-01 13:43:00,
2013-02-01 07:49:00,-3.3,-15.1,30.32,SW,225,1.6,4.6,56,0.00,CLR,FEW,0.00,WeatherDisplay:10.37,2013-02-01 13:49:00,
2013-02-01 07:54:00,-3.1,-12.6,30.32,West,270,1.6,3.8,63,0.00,CLR,FEW,0.00,WeatherDisplay:10.37,2013-02-01 13:54:00,
2013-02-01 08:00:00,-2.7,-12.6,30.32,West,270,3.1,5.4,62,0.00,CLR,FEW,0.00,WeatherDisplay:10.37,2013-02-01 14:00:00,
2013-02-01 08:05:00,-1.7,-11.9,30.33,NW,315,1.6,5.8,61,0.00,CLR,FEW,0.00,WeatherDisplay:10.37,2013-02-01 14:05:00,
2013-02-01 08:11:00,-1.8,-12.7,30.33,SSW,202,1.6,5.8,59,0.00,CLR,FEW,0.00,WeatherDisplay:10.37,2013-02-01 14:11:00,
2013-02-01 08:17:00,-1.8,-13.7,30.33,West,270,3.8,8.1,56,0.00,CLR,FEW,0.00,WeatherDisplay:10.37,2013-02-01 14:17:00,
2013-02-01 08:22:00,-0.9,-12.9,30.34,NW,315,1.6,6.9,56,0.00,CLR,FEW,0.00,WeatherDisplay:10.37,2013-02-01 14:22:00,
2013-02-01 08:28:00,-0.6,-12.9,30.34,NW,315,1.6,6.9,55,0.00,CLR,FEW,0.00,WeatherDisplay:10.37,2013-02-01 14:28:00,
2013-02-01 08:33:00,0.1,-11.9,30.34,West,270,1.6,6.0,56,0.00,CLR,FEW,0.00,WeatherDisplay:10.37,2013-02-01 14:33:00,
2013-02-01 08:39:00,0.1,-11.9,30.34,West,270,0.7,8.1,56,0.00,CLR,FEW,0.00,WeatherDisplay:10.37,2013-02-01 14:39:00,
2013-02-01 08:45:00,0.0,-12.8,30.34,NW,315,2.2,5.8,54,0.00,CLR,FEW,0.00,WeatherDisplay:10.37,2013-02-01 14:45:00,
2013-02-01 08:50:00,-0.2,-12.2,30.34,NW,315,2.2,5.8,56,0.00,CLR,FEW,0.00,WeatherDisplay:10.37,2013-02-01 14:50:00,
2013-02-01 08:56:00,0.0,-12.8,30.34,SW,225,3.1,5.4,54,0.00,CLR,FEW,0.00,WeatherDisplay:10.37,2013-02-01 14:56:00,
2013-02-01 09:01:00,0.3,-12.8,30.34,SW,225,1.6,4.6,53,0.00,CLR,FEW,0.00,WeatherDisplay:10.37,2013-02-01 15:01:00,
2013-02-01 09:07:00,0.0,-13.5,30.34,West,270,1.6,5.8,52,0.00,CLR,FEW,0.00,WeatherDisplay:10.37,2013-02-01 15:07:00,
2013-02-01 09:13:00,-0.2,-13.3,30.34,West,270,0.7,5.8,53,0.00,CLR,FEW,0.00,WeatherDisplay:10.37,2013-02-01 15:13:00,
2013-02-01 09:18:00,0.0,-13.1,30.34,WNW,292,3.1,8.3,53,0.00,CLR,FEW,0.00,WeatherDisplay:10.37,2013-02-01 15:18:00,
2013-02-01 09:24:00,0.3,-12.8,30.34,NW,315,1.6,4.6,53,0.00,CLR,FEW,0.00,WeatherDisplay:10.37,2013-02-01 15:24:00,
2013-02-01 09:29:00,1.6,-11.6,30.34,NW,315,3.1,6.0,53,0.00,CLR,FEW,0.00,WeatherDisplay:10.37,2013-02-01 15:29:00,
2013-02-01 09:35:00,2.3,-11.0,30.34,SW,225,3.1,5.8,53,0.00,CLR,FEW,0.00,WeatherDisplay:10.37,2013-02-01 15:35:00,
2013-02-01 09:41:00,2.7,-10.6,30.34,West,270,3.1,8.1,53,0.00,CLR,FEW,0.00,WeatherDisplay:10.37,2013-02-01 15:41:00,
2013-02-01 09:46:00,2.8,-10.4,30.34,WNW,292,3.1,6.9,53,0.00,CLR,FEW,0.00,WeatherDisplay:10.37,2013-02-01 15:46:00,
2013-02-01 09:52:00,3.2,-12.1,30.34,SW,225,3.1,8.1,48,0.00,CLR,FEW,0.00,WeatherDisplay:10.37,2013-02-01 15:52:00,
2013-02-01 09:57:00,4.1,-11.3,30.34,NW,315,2.2,6.9,48,0.00,CLR,FEW,0.00,WeatherDisplay:10.37,2013-02-01 15:57:00,
2013-02-01 10:03:00,3.2,-12.5,30.34,NW,315,3.8,8.1,47,0.00,CLR,FEW,0.00,WeatherDisplay:10.37,2013-02-01 16:03:00,
2013-02-01 10:09:00,4.3,-9.1,30.34,SE,135,2.2,5.8,53,0.00,CLR,FEW,0.00,WeatherDisplay:10.37,2013-02-01 16:09:00,
2013-02-01 10:14:00,5.0,-8.4,30.34,SW,225,1.6,5.8,53,0.00,CLR,FEW,0.00,WeatherDisplay:10.37,2013-02-01 16:14:00,
2013-02-01 10:20:00,5.5,-11.3,30.34,SW,225,2.2,6.9,45,0.00,CLR,FEW,0.00,WeatherDisplay:10.37,2013-02-01 16:20:00,
2013-02-01 10:25:00,5.2,-12.0,30.34,NW,315,3.1,6.9,44,0.00,CLR,FEW,0.00,WeatherDisplay:10.37,2013-02-01 16:25:00,
2013-02-01 10:31:00,5.5,-7.9,30.34,West,270,1.6,5.8,53,0.00,CLR,FEW,0.00,WeatherDisplay:10.37,2013-02-01 16:31:00,
2013-02-01 10:37:00,6.3,-7.2,30.34,West,270,2.2,5.8,53,0.00,CLR,FEW,0.00,WeatherDisplay:10.37,2013-02-01 16:37:00,
2013-02-01 10:42:00,6.1,-7.4,30.34,SW,225,2.2,4.6,53,0.00,CLR,FEW,0.00,WeatherDisplay:10.37,2013-02-01 16:42:00,
2013-02-01 10:48:00,6.4,-10.9,30.34,WSW,248,3.1,6.9,44,0.00,CLR,FEW,0.00,WeatherDisplay:10.37,2013-02-01 16:48:00,
2013-02-01 10:53:00,7.0,-6.6,30.34,NW,315,2.2,3.8,53,0.00,CLR,FEW,0.00,WeatherDisplay:10.37,2013-02-01 16:53:00,
2013-02-01 10:59:00,7.2,-10.7,30.34,NW,315,2.2,4.6,43,0.00,CLR,FEW,0.00,WeatherDisplay:10.37,2013-02-01 16:59:00,
2013-02-01 11:05:00,7.2,-6.4,30.34,South,180,1.6,4.6,53,0.00,CLR,FEW,0.00,WeatherDisplay:10.37,2013-02-01 17:05:00,
2013-02-01 11:10:00,7.9,-5.7,30.34,West,270,1.6,5.8,53,0.00,CLR,FEW,0.00,WeatherDisplay:10.37,2013-02-01 17:10:00,
2013-02-01 11:16:00,7.7,-10.7,30.34,WSW,248,2.2,5.4,42,0.00,CLR,FEW,0.00,WeatherDisplay:10.37,2013-02-01 17:16:00,
2013-02-01 11:21:00,7.9,-9.6,30.34,NW,315,0.0,5.8,44,0.00,CLR,FEW,0.00,WeatherDisplay:10.37,2013-02-01 17:21:00,
2013-02-01 11:27:00,9.0,-4.7,30.33,North,0,0.7,2.3,53,0.00,CLR,FEW,0.00,WeatherDisplay:10.37,2013-02-01 17:27:00,
2013-02-01 11:33:00,8.6,-10.8,30.33,NW,315,2.2,5.8,40,0.00,CLR,FEW,0.00,WeatherDisplay:10.37,2013-02-01 17:33:00,
2013-02-01 11:38:00,8.1,-5.6,30.33,SW,225,0.7,8.1,53,0.00,CLR,FEW,0.00,WeatherDisplay:10.37,2013-02-01 17:38:00,
2013-02-01 11:44:00,8.1,-9.9,30.33,NW,315,0.0,5.8,43,0.00,CLR,FEW,0.00,WeatherDisplay:10.37,2013-02-01 17:44:00,
2013-02-01 11:49:00,8.4,-5.2,30.32,NW,315,3.1,5.8,53,0.00,CLR,FEW,0.00,WeatherDisplay:10.37,2013-02-01 17:49:00,
2013-02-01 11:55:00,8.4,-10.0,30.32,South,180,1.6,3.5,42,0.00,CLR,FEW,0.00,WeatherDisplay:10.37,2013-02-01 17:55:00,
2013-02-01 12:01:00,9.0,-9.0,30.32,West,270,0.0,1.6,43,0.00,CLR,FEW,0.00,WeatherDisplay:10.37,2013-02-01 18:01:00,
2013-02-01 12:06:00,9.3,-3.2,30.32,South,180,2.2,4.6,56,0.00,CLR,FEW,0.00,WeatherDisplay:10.37,2013-02-01 18:06:00,
2013-02-01 12:12:00,10.2,-7.9,30.31,East,90,0.7,4.6,43,0.00,CLR,FEW,0.00,WeatherDisplay:10.37,2013-02-01 18:12:00,
2013-02-01 12:17:00,10.0,-2.6,30.31,West,270,3.1,6.0,56,0.00,CLR,FEW,0.00,WeatherDisplay:10.37,2013-02-01 18:17:00,
2013-02-01 12:23:00,9.5,-3.1,30.31,South,180,1.6,5.8,56,0.00,CLR,FEW,0.00,WeatherDisplay:10.37,2013-02-01 18:23:00,
2013-02-01 12:29:00,9.0,-12.1,30.30,South,180,3.8,6.9,37,0.00,CLR,FEW,0.00,WeatherDisplay:10.37,2013-02-01 18:29:00,
2013-02-01 12:34:00,9.5,-3.1,30.30,West,270,2.2,4.6,56,0.00,CLR,FEW,0.00,WeatherDisplay:10.37,2013-02-01 18:34:00,
2013-02-01 12:40:00,10.9,-7.7,30.30,West,270,0.0,5.8,42,0.00,CLR,FEW,0.00,WeatherDisplay:10.37,2013-02-01 18:40:00,
2013-02-01 12:45:00,11.1,-1.5,30.30,SW,225,1.6,6.9,56,0.00,CLR,FEW,0.00,WeatherDisplay:10.37,2013-02-01 18:45:00,
2013-02-01 12:51:00,11.7,-8.6,30.29,West,270,2.2,4.6,39,0.00,CLR,FEW,0.00,WeatherDisplay:10.37,2013-02-01 18:51:00,
2013-02-01 12:57:00,12.2,-9.2,30.28,WSW,248,3.1,8.1,37,0.00,CLR,FEW,0.00,WeatherDisplay:10.37,2013-02-01 18:57:00,
2013-02-01 13:02:00,12.2,-1.7,30.28,East,90,0.0,3.5,53,0.00,CLR,FEW,0.00,WeatherDisplay:10.37,2013-02-01 19:02:00,
2013-02-01 13:08:00,13.8,-0.2,30.28,West,270,1.6,8.1,53,0.00,CLR,FEW,0.00,WeatherDisplay:10.37,2013-02-01 19:08:00,
2013-02-01 13:13:00,13.5,-7.5,30.28,North,0,1.6,5.8,38,0.00,CLR,FEW,0.00,WeatherDisplay:10.37,2013-02-01 19:13:00,
2013-02-01 13:19:00,14.0,-6.5,30.27,SW,225,3.1,6.9,39,0.00,CLR,FEW,0.00,WeatherDisplay:10.37,2013-02-01 19:19:00,
2013-02-01 13:25:00,12.9,-1.0,30.27,West,270,2.2,5.8,53,0.00,CLR,FEW,0.00,WeatherDisplay:10.37,2013-02-01 19:25:00,
2013-02-01 13:30:00,13.1,-0.9,30.27,SW,225,0.7,4.6,53,0.00,CLR,FEW,0.00,WeatherDisplay:10.37,2013-02-01 19:30:00,
2013-02-01 13:36:00,12.6,-1.4,30.26,South,180,1.6,4.6,53,0.00,CLR,FEW,0.00,WeatherDisplay:10.37,2013-02-01 19:36:00,
2013-02-01 13:41:00,12.2,-1.7,30.26,SW,225,3.8,5.8,53,0.00,CLR,FEW,0.00,WeatherDisplay:10.37,2013-02-01 19:41:00,
2013-02-01 13:47:00,12.2,-1.7,30.26,West,270,0.7,6.9,53,0.00,CLR,FEW,0.00,WeatherDisplay:10.37,2013-02-01 19:47:00,
2013-02-01 13:53:00,12.2,-7.6,30.27,SW,225,3.8,6.9,40,0.00,CLR,FEW,0.00,WeatherDisplay:10.37,2013-02-01 19:53:00,
2013-02-01 13:58:00,11.5,-2.4,30.26,SW,225,1.6,6.9,53,0.00,CLR,FEW,0.00,WeatherDisplay:10.37,2013-02-01 19:58:00,
2013-02-01 14:04:00,12.9,-1.0,30.25,SW,225,3.8,8.1,53,0.00,CLR,FEW,0.00,WeatherDisplay:10.37,2013-02-01 20:04:00,
2013-02-01 14:09:00,13.3,-6.1,30.25,West,270,3.8,7.6,41,0.00,CLR,FEW,0.00,WeatherDisplay:10.37,2013-02-01 20:09:00,
2013-02-01 14:15:00,12.4,-7.9,30.25,SW,225,3.8,8.1,39,0.00,CLR,FEW,0.00,WeatherDisplay:10.37,2013-02-01 20:15:00,
2013-02-01 14:21:00,13.3,-0.7,30.25,SW,225,3.1,6.9,53,0.00,CLR,FEW,0.00,WeatherDisplay:10.37,2013-02-01 20:21:00,
2013-02-01 14:26:00,13.1,-0.9,30.26,SW,225,4.5,10.4,53,0.00,CLR,FEW,0.00,WeatherDisplay:10.37,2013-02-01 20:26:00,
2013-02-01 14:32:00,12.9,-1.0,30.26,South,180,3.1,6.9,53,0.00,CLR,FEW,0.00,WeatherDisplay:10.37,2013-02-01 20:32:00,
2013-02-01 14:37:00,11.7,-2.2,30.25,SW,225,5.4,8.1,53,0.00,CLR,FEW,0.00,WeatherDisplay:10.37,2013-02-01 20:37:00,
2013-02-01 14:43:00,11.3,-6.4,30.25,SW,225,3.1,6.0,44,0.00,CLR,FEW,0.00,WeatherDisplay:10.37,2013-02-01 20:43:00,
2013-02-01 14:49:00,10.9,-5.8,30.25,West,270,3.8,8.3,46,0.00,CLR,FEW,0.00,WeatherDisplay:10.37,2013-02-01 20:49:00,
2013-02-01 14:54:00,12.0,-1.9,30.25,SW,225,2.2,4.6,53,0.00,CLR,FEW,0.00,WeatherDisplay:10.37,2013-02-01 20:54:00,
2013-02-01 15:00:00,11.1,-2.7,30.25,NW,315,2.2,6.9,53,0.00,CLR,FEW,0.00,WeatherDisplay:10.37,2013-02-01 21:00:00,
2013-02-01 15:05:00,10.0,-6.7,30.26,SW,225,5.4,9.8,46,0.00,BKN,FEW,0.00,WeatherDisplay:10.37,2013-02-01 21:05:00,
2013-02-01 15:11:00,9.5,-5.0,30.25,NW,315,1.6,5.8,51,0.00,BKN,FEW,0.00,WeatherDisplay:10.37,2013-02-01 21:11:00,
2013-02-01 15:17:00,9.5,-5.0,30.25,South,180,3.1,5.8,51,0.00,BKN,FEW,0.00,WeatherDisplay:10.37,2013-02-01 21:17:00,
2013-02-01 15:22:00,9.0,-5.5,30.25,South,180,5.4,9.2,51,0.00,BKN,FEW,0.00,WeatherDisplay:10.37,2013-02-01 21:22:00,
2013-02-01 15:28:00,8.8,-6.5,30.24,SW,225,0.7,5.8,49,0.00,BKN,FEW,0.00,WeatherDisplay:10.37,2013-02-01 21:28:00,
2013-02-01 15:33:00,9.1,-5.4,30.24,North,0,0.7,4.6,51,0.00,BKN,FEW,0.00,WeatherDisplay:10.37,2013-02-01 21:33:00,
2013-02-01 15:39:00,9.1,-6.2,30.24,SW,225,5.4,7.6,49,0.00,BKN,FEW,0.00,WeatherDisplay:10.37,2013-02-01 21:39:00,
2013-02-01 15:45:00,9.1,-5.4,30.24,SW,225,4.5,8.1,51,0.00,BKN,FEW,0.00,WeatherDisplay:10.37,2013-02-01 21:45:00,
2013-02-01 15:50:00,9.0,-5.5,30.24,South,180,1.6,5.8,51,0.00,BKN,FEW,0.00,WeatherDisplay:10.37,2013-02-01 21:50:00,
2013-02-01 15:56:00,9.1,-5.8,30.23,WSW,248,1.6,4.6,50,0.00,BKN,FEW,0.00,WeatherDisplay:10.37,2013-02-01 21:56:00,
2013-02-01 16:01:00,9.1,-7.0,30.23,West,270,1.6,4.6,47,0.00,OVC,FEW,0.00,WeatherDisplay:10.37,2013-02-01 22:01:00,
2013-02-01 16:07:00,9.1,-7.0,30.23,SE,135,0.7,5.8,47,0.00,OVC,FEW,0.00,WeatherDisplay:10.37,2013-02-01 22:07:00,
2013-02-01 16:13:00,9.1,-5.0,30.22,SE,135,2.2,5.8,52,0.00,OVC,FEW,0.00,WeatherDisplay:10.37,2013-02-01 22:13:00,
2013-02-01 16:18:00,9.1,-7.0,30.22,South,180,1.6,4.5,47,0.00,OVC,FEW,0.00,WeatherDisplay:10.37,2013-02-01 22:18:00,
2013-02-01 16:24:00,9.1,-4.6,30.22,SW,225,3.1,5.8,53,0.00,OVC,FEW,0.00,WeatherDisplay:10.37,2013-02-01 22:24:00,
2013-02-01 16:29:00,9.0,-5.1,30.22,SW,225,3.8,8.1,52,0.00,OVC,FEW,0.00,WeatherDisplay:10.37,2013-02-01 22:29:00,
2013-02-01 16:35:00,9.1,-7.0,30.22,SSW,202,0.7,2.3,47,0.00,OVC,FEW,0.00,WeatherDisplay:10.37,2013-02-01 22:35:00,
2013-02-01 16:41:00,9.1,-7.0,30.22,West,270,1.6,8.1,47,0.00,OVC,FEW,0.00,WeatherDisplay:10.37,2013-02-01 22:41:00,
2013-02-01 16:46:00,9.3,-6.9,30.22,SE,135,3.1,6.9,47,0.00,OVC,FEW,0.00,WeatherDisplay:10.37,2013-02-01 22:46:00,
2013-02-01 16:52:00,9.3,-3.6,30.21,SW,225,2.2,3.8,55,0.00,OVC,FEW,0.00,WeatherDisplay:10.37,2013-02-01 22:52:00,
2013-02-01 16:57:00,9.3,-6.9,30.21,West,270,1.6,3.5,47,0.00,OVC,FEW,0.00,WeatherDisplay:10.37,2013-02-01 22:57:00,
2013-02-01 17:03:00,9.5,-6.3,30.21,SSE,158,2.2,5.8,48,0.00,OVC,FEW,0.00,WeatherDisplay:10.37,2013-02-01 23:03:00,
2013-02-01 17:09:00,9.5,-3.4,30.20,SSE,158,3.8,6.9,55,0.00,OVC,FEW,0.00,WeatherDisplay:10.37,2013-02-01 23:09:00,
2013-02-01 17:14:00,9.5,-6.3,30.20,WNW,292,3.1,8.3,48,0.00,OVC,FEW,0.00,WeatherDisplay:10.37,2013-02-01 23:14:00,
2013-02-01 17:20:00,9.7,-6.1,30.19,SE,135,1.6,4.6,48,0.00,OVC,FEW,0.00,WeatherDisplay:10.37,2013-02-01 23:20:00,
2013-02-01 17:25:00,9.9,-2.7,30.19,South,180,1.6,4.6,56,0.00,OVC,FEW,0.00,WeatherDisplay:10.37,2013-02-01 23:25:00,
2013-02-01 17:31:00,9.9,-5.9,30.19,NW,315,3.1,9.2,48,0.00,OVC,FEW,0.00,WeatherDisplay:10.37,2013-02-01 23:31:00,
2013-02-01 17:37:00,10.0,-3.3,30.19,South,180,0.7,8.1,54,0.00,OVC,FEW,0.00,WeatherDisplay:10.37,2013-02-01 23:37:00,
2013-02-01 17:42:00,9.9,-5.9,30.19,SW,225,0.0,5.8,48,0.00,OVC,FEW,0.00,WeatherDisplay:10.37,2013-02-01 23:42:00,
2013-02-01 17:48:00,10.0,-3.3,30.18,South,180,2.2,3.8,54,0.00,OVC,FEW,0.00,WeatherDisplay:10.37,2013-02-01 23:48:00,
2013-02-01 17:53:00,10.0,-5.8,30.19,SW,225,0.7,3.5,48,0.00,OVC,FEW,0.00,WeatherDisplay:10.37,2013-02-01 23:53:00,
2013-02-01 17:59:00,10.2,-5.6,30.18,SW,225,1.6,4.6,48,0.00,OVC,FEW,0.00,WeatherDisplay:10.37,2013-02-01 23:59:00,
2013-02-01 18:05:00,10.2,-6.0,30.18,West,270,1.6,3.5,47,0.00,OVC,FEW,0.00,WeatherDisplay:10.37,2013-02-02 00:05:00,
2013-02-01 18:10:00,10.4,-5.9,30.18,SE,135,1.6,2.3,47,0.00,OVC,FEW,0.00,WeatherDisplay:10.37,2013-02-02 00:10:00,
2013-02-01 18:16:00,10.6,-2.0,30.18,South,180,1.6,3.1,56,0.00,OVC,FEW,0.00,WeatherDisplay:10.37,2013-02-02 00:16:00,
2013-02-01 18:21:00,10.8,-5.6,30.17,SW,225,2.2,8.1,47,0.00,OVC,FEW,0.00,WeatherDisplay:10.37,2013-02-02 00:21:00,
2013-02-01 18:27:00,10.9,-5.4,30.17,South,180,3.1,4.6,47,0.00,OVC,FEW,0.00,WeatherDisplay:10.37,2013-02-02 00:27:00,
2013-02-01 18:33:00,10.9,-1.3,30.17,South,180,1.6,4.5,57,0.00,OVC,FEW,0.00,WeatherDisplay:10.37,2013-02-02 00:33:00,
2013-02-01 18:38:00,11.1,-5.2,30.17,SE,135,0.7,5.8,47,0.00,OVC,FEW,0.00,WeatherDisplay:10.37,2013-02-02 00:38:00,
2013-02-01 18:44:00,11.3,-0.6,30.16,SE,135,1.6,3.8,58,0.00,OVC,FEW,0.00,WeatherDisplay:10.37,2013-02-02 00:44:00,
2013-02-01 18:49:00,11.5,-0.1,30.16,SE,135,0.7,2.3,59,0.00,OVC,FEW,0.00,WeatherDisplay:10.37,2013-02-02 00:49:00,
2013-02-01 18:55:00,11.5,-0.1,30.15,East,90,0.7,3.1,59,0.00,OVC,FEW,0.00,WeatherDisplay:10.37,2013-02-02 00:55:00,
2013-02-01 19:01:00,11.7,-4.7,30.15,East,90,0.0,1.1,47,0.00,OVC,FEW,0.00,WeatherDisplay:10.37,2013-02-02 01:01:00,
2013-02-01 19:06:00,11.8,-1.6,30.14,South,180,3.1,5.8,54,0.00,OVC,FEW,0.00,WeatherDisplay:10.37,2013-02-02 01:06:00,
2013-02-01 19:12:00,12.2,0.9,30.14,NE,45,1.6,3.5,60,0.00,OVC,FEW,0.00,WeatherDisplay:10.37,2013-02-02 01:12:00,
2013-02-01 19:17:00,12.4,1.1,30.14,South,180,0.0,3.5,60,0.00,OVC,FEW,0.00,WeatherDisplay:10.37,2013-02-02 01:17:00,
2013-02-01 19:23:00,12.6,1.3,30.14,East,90,0.7,3.5,60,0.00,OVC,FEW,0.00,WeatherDisplay:10.37,2013-02-02 01:23:00,
2013-02-01 19:29:00,12.7,-0.8,30.13,SE,135,0.0,2.3,54,0.00,OVC,FEW,0.00,WeatherDisplay:10.37,2013-02-02 01:29:00,
2013-02-01 19:34:00,13.1,-0.5,30.13,SE,135,0.7,4.6,54,0.00,OVC,FEW,0.00,WeatherDisplay:10.37,2013-02-02 01:34:00,
2013-02-01 19:40:00,13.3,2.0,30.13,East,90,1.6,5.8,60,0.00,OVC,FEW,0.00,WeatherDisplay:10.37,2013-02-02 01:40:00,
2013-02-01 19:45:00,13.5,-0.1,30.12,NW,315,1.6,5.8,54,0.00,OVC,FEW,0.00,WeatherDisplay:10.37,2013-02-02 01:45:00,
2013-02-01 19:51:00,13.5,-0.1,30.12,SW,225,0.7,3.5,54,0.00,OVC,FEW,0.00,WeatherDisplay:10.37,2013-02-02 01:51:00,
2013-02-01 19:57:00,13.8,2.8,30.12,South,180,3.8,6.0,61,0.00,OVC,FEW,0.00,WeatherDisplay:10.37,2013-02-02 01:57:00,
2013-02-01 20:02:00,13.8,-1.0,30.12,South,180,0.7,5.8,51,0.00,OVC,FEW,0.00,WeatherDisplay:10.37,2013-02-02 02:02:00,
2013-02-01 20:08:00,14.0,3.0,30.12,NW,315,1.6,2.3,61,0.00,OVC,FEW,0.00,WeatherDisplay:10.37,2013-02-02 02:08:00,
2013-02-01 20:13:00,14.2,3.2,30.12,SE,135,1.6,4.6,61,0.00,OVC,FEW,0.00,WeatherDisplay:10.37,2013-02-02 02:13:00,
2013-02-01 20:19:00,14.4,3.4,30.11,NE,45,0.7,2.3,61,0.00,OVC,FEW,0.00,WeatherDisplay:10.37,2013-02-02 02:19:00,
2013-02-01 20:25:00,14.4,-0.5,30.11,East,90,1.6,2.3,51,0.00,OVC,FEW,0.00,WeatherDisplay:10.37,2013-02-02 02:25:00,
2013-02-01 20:30:00,14.7,-0.2,30.11,NW,315,0.7,4.6,51,0.00,OVC,FEW,0.00,WeatherDisplay:10.37,2013-02-02 02:30:00,
2013-02-01 20:36:00,14.7,-0.2,30.11,South,180,0.7,3.5,51,0.00,OVC,FEW,0.00,WeatherDisplay:10.37,2013-02-02 02:36:00,
2013-02-01 20:41:00,14.9,0.0,30.10,South,180,0.7,2.3,51,0.00,OVC,FEW,0.00,WeatherDisplay:10.37,2013-02-02 02:41:00,
2013-02-01 20:47:00,15.1,4.4,30.10,South,180,0.7,2.2,62,0.00,OVC,FEW,0.00,WeatherDisplay:10.37,2013-02-02 02:47:00,
2013-02-01 20:53:00,15.3,4.9,30.11,South,180,0.7,1.6,63,0.00,OVC,FEW,0.00,WeatherDisplay:10.37,2013-02-02 02:53:00,
2013-02-01 20:58:00,15.4,5.1,30.10,South,180,0.0,3.5,63,0.00,OVC,FEW,0.00,WeatherDisplay:10.37,2013-02-02 02:58:00,
2013-02-01 21:04:00,15.6,5.2,30.10,South,180,0.7,3.5,63,0.00,OVC,FEW,0.00,WeatherDisplay:10.37,2013-02-02 03:04:00,
2013-02-01 21:09:00,15.8,2.1,30.10,SE,135,0.0,2.3,54,0.00,OVC,FEW,0.00,WeatherDisplay:10.37,2013-02-02 03:09:00,
2013-02-01 21:15:00,16.0,2.2,30.10,South,180,1.6,3.5,54,0.00,OVC,FEW,0.00,WeatherDisplay:10.37,2013-02-02 03:15:00,
2013-02-01 21:21:00,16.2,5.8,30.09,SSE,158,1.6,3.5,63,0.00,OVC,FEW,0.00,WeatherDisplay:10.37,2013-02-02 03:21:00,
2013-02-01 21:26:00,16.3,2.6,30.09,SW,225,0.7,4.6,54,0.00,OVC,FEW,0.00,WeatherDisplay:10.37,2013-02-02 03:26:00,
2013-02-01 21:32:00,16.5,6.1,30.09,SE,135,1.6,4.6,63,0.00,OVC,FEW,0.00,WeatherDisplay:10.37,2013-02-02 03:32:00,
2013-02-01 21:37:00,16.9,3.1,30.08,SW,225,0.7,2.3,54,0.00,OVC,FEW,0.00,WeatherDisplay:10.37,2013-02-02 03:37:00,
2013-02-01 21:43:00,17.1,6.6,30.08,SE,135,1.6,4.6,63,0.00,OVC,FEW,0.00,WeatherDisplay:10.37,2013-02-02 03:43:00,
2013-02-01 21:49:00,17.2,6.8,30.08,SE,135,0.7,3.5,63,0.00,OVC,FEW,0.00,WeatherDisplay:10.37,2013-02-02 03:49:00,
2013-02-01 21:54:00,17.2,3.4,30.08,SW,225,1.6,3.5,54,0.00,OVC,FEW,0.00,WeatherDisplay:10.37,2013-02-02 03:54:00,
2013-02-01 22:00:00,17.4,3.6,30.08,South,180,2.2,5.8,54,0.00,OVC,FEW,0.00,WeatherDisplay:10.37,2013-02-02 04:00:00,
2013-02-01 22:05:00,17.6,7.1,30.08,South,180,2.2,6.0,63,0.00,OVC,FEW,0.00,WeatherDisplay:10.37,2013-02-02 04:05:00,
2013-02-01 22:11:00,17.8,3.9,30.08,SW,225,2.2,5.8,54,0.00,OVC,FEW,0.00,WeatherDisplay:10.37,2013-02-02 04:11:00,
2013-02-01 22:17:00,18.0,7.5,30.08,SSW,202,2.2,5.8,63,0.00,OVC,FEW,0.00,WeatherDisplay:10.37,2013-02-02 04:17:00,
2013-02-01 22:22:00,18.0,7.5,30.08,South,180,1.6,3.5,63,0.00,OVC,FEW,0.00,WeatherDisplay:10.37,2013-02-02 04:22:00,
2013-02-01 22:28:00,18.1,8.0,30.08,SW,225,2.2,3.8,64,0.00,OVC,FEW,0.00,WeatherDisplay:10.37,2013-02-02 04:28:00,
2013-02-01 22:33:00,18.1,8.3,30.08,West,270,0.7,5.8,65,0.00,OVC,FEW,0.00,WeatherDisplay:10.37,2013-02-02 04:33:00,
2013-02-01 22:39:00,18.3,9.2,30.08,South,180,0.7,4.6,67,0.00,OVC,FEW,0.00,WeatherDisplay:10.37,2013-02-02 04:39:00,
2013-02-01 22:45:00,18.3,4.4,30.08,NW,315,0.0,3.5,54,0.00,OVC,FEW,0.00,WeatherDisplay:10.37,2013-02-02 04:45:00,
2013-02-01 22:50:00,18.3,4.4,30.08,SE,135,0.0,3.5,54,0.00,OVC,FEW,0.00,WeatherDisplay:10.37,2013-02-02 04:50:00,
2013-02-01 22:56:00,18.3,10.2,30.08,South,180,0.7,2.3,70,0.00,OVC,FEW,0.00,WeatherDisplay:10.37,2013-02-02 04:56:00,
2013-02-01 23:00:00,18.5,11.0,30.08,SSE,158,0.7,2.2,72,0.00,OVC,FEW,0.00,WeatherDisplay:10.37,2013-02-02 05:00:00,
2013-02-01 23:01:00,18.5,4.6,30.08,SSE,158,0.7,2.3,54,0.00,OVC,FEW,0.00,WeatherDisplay:10.37,2013-02-02 05:01:00,
2013-02-01 23:02:00,18.3,10.8,30.08,South,180,0.0,2.3,72,0.00,OVC,FEW,0.00,WeatherDisplay:10.37,2013-02-02 05:02:00,
2013-02-01 23:05:00,18.5,4.6,30.08,South,180,1.6,3.5,54,0.00,OVC,FEW,0.00,WeatherDisplay:10.37,2013-02-02 05:05:00,
2013-02-01 23:10:00,18.5,4.6,30.07,SSW,202,0.7,3.5,54,0.00,OVC,FEW,0.00,WeatherDisplay:10.37,2013-02-02 05:10:00,
2013-02-01 23:16:00,18.7,4.8,30.07,South,180,0.7,3.5,54,0.00,OVC,FEW,0.00,WeatherDisplay:10.37,2013-02-02 05:16:00,
2013-02-01 23:21:00,18.9,4.9,30.07,South,180,0.7,3.5,54,0.00,OVC,FEW,0.00,WeatherDisplay:10.37,2013-02-02 05:21:00,
2013-02-01 23:27:00,19.0,11.8,30.06,SW,225,0.0,3.5,73,0.00,OVC,FEW,0.00,WeatherDisplay:10.37,2013-02-02 05:27:00,
2013-02-01 23:33:00,19.2,5.3,30.06,South,180,0.7,4.6,54,0.00,OVC,FEW,0.00,WeatherDisplay:10.37,2013-02-02 05:33:00,
2013-02-01 23:38:00,19.4,5.4,30.06,South,180,3.1,4.6,54,0.00,OVC,FEW,0.00,WeatherDisplay:10.37,2013-02-02 05:38:00,
2013-02-01 23:44:00,19.6,12.3,30.06,SE,135,0.7,3.5,73,0.00,OVC,FEW,0.00,WeatherDisplay:10.37,2013-02-02 05:44:00,
2013-02-01 23:49:00,19.8,5.8,30.05,SW,225,1.6,4.6,54,0.00,OVC,FEW,0.00,WeatherDisplay:10.37,2013-02-02 05:49:00,
2013-02-01 23:55:00,19.8,5.8,30.04,East,90,2.2,3.5,54,0.00,OVC,FEW,0.00,WeatherDisplay:10.37,2013-02-02 05:55:00,